• Em Portugal
  • Lista de países
  • Para 7 dias
  • Temperatura da água
  • Mapas de satélite
  • Mapa do tempo
  • Widgets de tempo
  • user-avatar
    Iniciar Sessão

    Previsão horária em La Paz

    Hoje, 25 Setembro, Terça-feira

    Tempo Temperatura Precipitação Vento Pressão Humidade
    00:00 +6°C° 0 mm 1 m/s 474 mmHg 82%
    01:00 +5°C° 0 mm 1 m/s 473 mmHg 83%
    02:00 +5°C° 0 mm 1 m/s 473 mmHg 83%
    03:00 +5°C° 0 mm 1 m/s 473 mmHg 84%
    04:00 +5°C° 0 mm 1 m/s 473 mmHg 84%
    05:00 +6°C° 0 mm 1 m/s 473 mmHg 79%
    06:00 +6°C° 0 mm 1 m/s 474 mmHg 74%
    07:00 +7°C° 0 mm 1 m/s 475 mmHg 69%
    08:00 +9°C° 0 mm 1 m/s 476 mmHg 61%
    09:00 +9°C° 0 mm 2 m/s 477 mmHg 53%
    10:00 +12°C° 0 mm 2 m/s 478 mmHg 45%
    11:00 +11°C° 0.7 mm 3 m/s 477 mmHg 47%
    12:00 +11°C° 0.7 mm 3 m/s 477 mmHg 48%
    13:00 +11°C° 0.7 mm 3 m/s 476 mmHg 50%
    14:00 +11°C° 1.3 mm 3 m/s 475 mmHg 54%
    15:00 +10°C° 1.3 mm 3 m/s 475 mmHg 59%
    16:00 +8°C° 1.3 mm 4 m/s 474 mmHg 64%
    17:00 +8°C° 0.5 mm 3 m/s 474 mmHg 69%
    18:00 +7°C° 0.5 mm 3 m/s 474 mmHg 73%
    19:00 +7°C° 0.5 mm 3 m/s 474 mmHg 78%
    20:00 +6°C° 0.4 mm 2 m/s 474 mmHg 79%
    21:00 +6°C° 0.4 mm 2 m/s 474 mmHg 80%
    22:00 +6°C° 0.4 mm 2 m/s 474 mmHg 81%
    23:00 +7°C° 0.4 mm 1 m/s 474 mmHg 81%

    Amanhã, 26 Setembro, Quarta-feira

    Tempo Temperatura Precipitação Vento Pressão Humidade
    00:00 +6°C° 0.4 mm 1 m/s 474 mmHg 81%
    01:00 +6°C° 0.4 mm 1 m/s 473 mmHg 81%
    02:00 +6°C° 0.2 mm 1 m/s 473 mmHg 80%
    03:00 +6°C° 0.2 mm 1 m/s 473 mmHg 79%
    04:00 +6°C° 0.2 mm 1 m/s 473 mmHg 78%
    05:00 +6°C° 0 mm 1 m/s 473 mmHg 74%
    06:00 +7°C° 0 mm 1 m/s 474 mmHg 69%
    07:00 +7°C° 0 mm 1 m/s 474 mmHg 65%
    08:00 +9°C° 0 mm 1 m/s 475 mmHg 58%
    09:00 +10°C° 0 mm 1 m/s 476 mmHg 51%
    10:00 +10°C° 0 mm 2 m/s 477 mmHg 44%
    11:00 +12°C° 0.3 mm 2 m/s 477 mmHg 44%
    12:00 +12°C° 0.3 mm 2 m/s 477 mmHg 44%
    13:00 +12°C° 0.3 mm 3 m/s 476 mmHg 44%
    14:00 +11°C° 0.8 mm 3 m/s 476 mmHg 47%
    15:00 +10°C° 0.8 mm 3 m/s 475 mmHg 51%
    16:00 +10°C° 0.8 mm 3 m/s 474 mmHg 55%
    17:00 +9°C° 0.4 mm 3 m/s 474 mmHg 60%
    18:00 +8°C° 0.4 mm 2 m/s 474 mmHg 66%
    19:00 +7°C° 0.4 mm 2 m/s 474 mmHg 71%
    20:00 +7°C° 0.1 mm 2 m/s 474 mmHg 73%
    21:00 +6°C° 0.1 mm 2 m/s 474 mmHg 75%
    22:00 +7°C° 0.1 mm 1 m/s 474 mmHg 77%
    23:00 +7°C° 0.1 mm 1 m/s 474 mmHg 78%

    Depois de amanhã, 27 Setembro, Quinta-feira

    Tempo Temperatura Precipitação Vento Pressão Humidade
    00:00 +6°C° 0.1 mm 1 m/s 474 mmHg 79%
    01:00 +6°C° 0.1 mm 1 m/s 473 mmHg 80%
    02:00 +6°C° 0.1 mm 1 m/s 473 mmHg 80%
    03:00 +5°C° 0.1 mm 1 m/s 472 mmHg 81%
    04:00 +5°C° 0.1 mm 1 m/s 472 mmHg 81%
    05:00 +6°C° 0 mm 1 m/s 473 mmHg 73%
    06:00 +6°C° 0 mm 0 m/s 474 mmHg 66%
    07:00 +7°C° 0 mm 0 m/s 475 mmHg 58%
    08:00 +9°C° 0 mm 1 m/s 476 mmHg 53%
    09:00 +10°C° 0 mm 2 m/s 477 mmHg 48%
    10:00 +12°C° 0 mm 2 m/s 478 mmHg 43%
    11:00 +11°C° 0.7 mm 3 m/s 477 mmHg 45%
    12:00 +12°C° 0.7 mm 3 m/s 477 mmHg 46%
    13:00 +12°C° 0.7 mm 4 m/s 476 mmHg 47%
    14:00 +11°C° 1.5 mm 4 m/s 475 mmHg 52%
    15:00 +10°C° 1.5 mm 4 m/s 475 mmHg 57%
    16:00 +8°C° 1.5 mm 4 m/s 474 mmHg 62%
    17:00 +9°C° 0.9 mm 3 m/s 474 mmHg 66%
    18:00 +8°C° 0.9 mm 3 m/s 474 mmHg 71%
    19:00 +7°C° 0.9 mm 3 m/s 474 mmHg 76%
    20:00 +5°C° 0.6 mm 3 m/s 474 mmHg 77%
    21:00 +5°C° 0.6 mm 3 m/s 475 mmHg 78%
    22:00 +6°C° 0.6 mm 2 m/s 475 mmHg 79%
    23:00 +6°C° 0.3 mm 2 m/s 474 mmHg 80%

    28 Setembro, Sexta-feira

    Tempo Temperatura Precipitação Vento Pressão Humidade
    00:00 +5°C° 0.3 mm 2 m/s 474 mmHg 81%
    01:00 +6°C° 0.3 mm 1 m/s 474 mmHg 83%
    02:00 +6°C° 0.2 mm 1 m/s 473 mmHg 83%
    03:00 +5°C° 0.2 mm 1 m/s 473 mmHg 83%
    04:00 +5°C° 0.2 mm 1 m/s 473 mmHg 83%
    05:00 +6°C° 0 mm 1 m/s 474 mmHg 79%
    06:00 +7°C° 0 mm 1 m/s 475 mmHg 75%
    07:00 +7°C° 0 mm 1 m/s 475 mmHg 72%
    08:00 +7°C° 0.2 mm 2 m/s 476 mmHg 67%
    09:00 +9°C° 0.2 mm 2 m/s 476 mmHg 62%
    10:00 +10°C° 0.2 mm 2 m/s 477 mmHg 57%
    11:00 +10°C° 0.6 mm 3 m/s 477 mmHg 56%
    12:00 +11°C° 0.6 mm 3 m/s 476 mmHg 54%
    13:00 +11°C° 0.6 mm 3 m/s 476 mmHg 53%
    14:00 +11°C° 0.9 mm 3 m/s 476 mmHg 55%
    15:00 +11°C° 0.9 mm 4 m/s 475 mmHg 57%
    16:00 +10°C° 0.9 mm 4 m/s 475 mmHg 58%
    17:00 +9°C° 0.2 mm 3 m/s 475 mmHg 62%
    18:00 +8°C° 0.2 mm 3 m/s 475 mmHg 66%
    19:00 +7°C° 0.2 mm 3 m/s 475 mmHg 71%
    20:00 +7°C° 0.3 mm 2 m/s 475 mmHg 71%
    21:00 +6°C° 0.3 mm 2 m/s 475 mmHg 72%
    22:00 +7°C° 0.3 mm 1 m/s 475 mmHg 73%
    23:00 +6°C° 0.3 mm 1 m/s 474 mmHg 75%

    29 Setembro, Sábado

    Tempo Temperatura Precipitação Vento Pressão Humidade
    00:00 +6°C° 0.3 mm 1 m/s 474 mmHg 77%
    01:00 +6°C° 0.3 mm 1 m/s 473 mmHg 79%
    02:00 +5°C° 0 mm 1 m/s 473 mmHg 78%
    03:00 +4°C° 0 mm 1 m/s 472 mmHg 76%
    04:00 +4°C° 0 mm 1 m/s 472 mmHg 75%
    05:00 +5°C° 0 mm 1 m/s 473 mmHg 67%
    06:00 +6°C° 0 mm 1 m/s 474 mmHg 59%
    07:00 +8°C° 0 mm 1 m/s 476 mmHg 51%
    08:00 +9°C° 0 mm 1 m/s 476 mmHg 41%
    09:00 +11°C° 0 mm 1 m/s 477 mmHg 30%
    10:00 +12°C° 0 mm 1 m/s 478 mmHg 20%
    11:00 +13°C° 0.1 mm 1 m/s 478 mmHg 22%
    12:00 +14°C° 0.1 mm 2 m/s 478 mmHg 24%
    13:00 +15°C° 0.1 mm 2 m/s 477 mmHg 26%
    14:00 +14°C° 0.4 mm 2 m/s 477 mmHg 30%
    15:00 +13°C° 0.4 mm 3 m/s 476 mmHg 34%
    16:00 +12°C° 0.4 mm 3 m/s 476 mmHg 38%
    17:00 +11°C° 0.2 mm 3 m/s 475 mmHg 49%
    18:00 +9°C° 0.2 mm 3 m/s 475 mmHg 60%
    19:00 +8°C° 0.2 mm 3 m/s 475 mmHg 70%
    20:00 +7°C° 0 mm 3 m/s 475 mmHg 73%
    21:00 +7°C° 0 mm 2 m/s 475 mmHg 75%
    22:00 +6°C° 0 mm 2 m/s 474 mmHg 78%
    23:00 +7°C° 0 mm 1 m/s 474 mmHg 79%

    30 Setembro, Domingo

    Tempo Temperatura Precipitação Vento Pressão Humidade
    00:00 +7°C° 0 mm 1 m/s 474 mmHg 79%
    01:00 +6°C° 0 mm 1 m/s 473 mmHg 79%
    02:00 +6°C° 0 mm 1 m/s 473 mmHg 79%
    03:00 +5°C° 0 mm 1 m/s 472 mmHg 78%
    04:00 +5°C° 0 mm 1 m/s 472 mmHg 78%
    05:00 +6°C° 0 mm 1 m/s 473 mmHg 69%
    06:00 +7°C° 0 mm 1 m/s 474 mmHg 60%
    07:00 +9°C° 0 mm 1 m/s 475 mmHg 51%
    08:00 +10°C° 0 mm 1 m/s 476 mmHg 43%
    09:00 +12°C° 0 mm 1 m/s 477 mmHg 36%
    10:00 +14°C° 0 mm 2 m/s 478 mmHg 29%
    11:00 +15°C° 0.1 mm 2 m/s 478 mmHg 32%
    12:00 +14°C° 0.1 mm 3 m/s 477 mmHg 34%
    13:00 +16°C° 0.1 mm 3 m/s 477 mmHg 37%
    14:00 +14°C° 0.4 mm 3 m/s 477 mmHg 41%
    15:00 +14°C° 0.4 mm 4 m/s 476 mmHg 45%
    16:00 +13°C° 0.4 mm 4 m/s 476 mmHg 49%
    17:00 +12°C° 0.2 mm 4 m/s 475 mmHg 58%
    18:00 +10°C° 0.2 mm 4 m/s 475 mmHg 67%
    19:00 +9°C° 0.2 mm 3 m/s 474 mmHg 75%
    20:00 +8°C° 0.1 mm 3 m/s 475 mmHg 78%
    21:00 +8°C° 0.1 mm 2 m/s 475 mmHg 80%
    22:00 +8°C° 0.1 mm 2 m/s 475 mmHg 83%
    23:00 +8°C° 0 mm 1 m/s 474 mmHg 84%
    Mostrar mais